This is the latest recevied weather packets stored in our database for station/object JG6YCL-13. If no packets are shown the sender has not sent any weather packets the latest 1 day(s).
| Time | Temp. | Humidity | Pressure | Rain* | Wind** | Luminosity | Snow |
|---|---|---|---|---|---|---|---|
| 1778039856 | 26.67° C | 41% | 1005.3 hPa | - | - | - | - |
| 1778039544 | 26.11° C | 42% | 1005.5 hPa | - | - | - | - |
| 1778039240 | 26.67° C | 41% | 1005.5 hPa | - | - | - | - |
| 1778038939 | 26.11° C | 43% | 1005.5 hPa | - | - | - | - |
| 1778038668 | 26.11° C | 43% | 1005.6 hPa | - | - | - | - |
| 1778038337 | 26.11° C | 43% | 1005.8 hPa | - | - | - | - |
| 1778038037 | 25.56° C | 43% | 1005.7 hPa | - | - | - | - |
| 1778037736 | 25.56° C | 44% | 1005.9 hPa | - | - | - | - |
| 1778037434 | 25.56° C | 44% | 1006 hPa | - | - | - | - |
| 1778037133 | 25° C | 44% | 1006 hPa | - | - | - | - |
| 1778036837 | 25.56° C | 44% | 1006.1 hPa | - | - | - | - |
| 1778036231 | 25° C | 44% | 1006.1 hPa | - | - | - | - |
| 1778035628 | 25° C | 45% | 1006.2 hPa | - | - | - | - |
| 1778035327 | 24.44° C | 46% | 1006.3 hPa | - | - | - | - |
| 1778035028 | 24.44° C | 46% | 1006.3 hPa | - | - | - | - |
| 1778034729 | 24.44° C | 45% | 1006.4 hPa | - | - | - | - |
| 1778034425 | 24.44° C | 46% | 1006.6 hPa | - | - | - | - |
| 1778034125 | 24.44° C | 45% | 1006.6 hPa | - | - | - | - |
| 1778033823 | 24.44° C | 45% | 1006.8 hPa | - | - | - | - |
| 1778033539 | 23.89° C | 46% | 1006.8 hPa | - | - | - | - |
| 1778033225 | 23.89° C | 46% | 1006.9 hPa | - | - | - | - |
| 1778032618 | 23.89° C | 46% | 1007 hPa | - | - | - | - |
| 1778032318 | 23.89° C | 46% | 1007.1 hPa | - | - | - | - |
| 1778032016 | 23.33° C | 48% | 1007.1 hPa | - | - | - | - |
| 1778031414 | 22.78° C | 47% | 1007.1 hPa | - | - | - | - |
* Rain since midnight (hover to see other rain measurements)
** Current wind speed in m/s (hover to see current wind gust speed)